シェパード-ソーレン彗星

485P/Sheppard-Tholen (2023)

English version
Home page
Updated on May 26, 2024

---------------------------------------------------------------------

・ プロフィール

符号 485P/2022 U6
発見日 2022年10月28日
発見光度 22.2等
発見者 David J. Tholen and Scott S. Sheppard (Subaru telescope on Mauna Kea)

・ 軌道要素

Epoch 2023 Sept. 13.0 TT = JDT 2460200.5                                        
T 2023 Aug. 24.41301 TT                                 Rudenko                 
q   3.9908601            (2000.0)            P               Q                  
n   0.05503035     Peri.  195.96740     -0.12838258     -0.97667981             
a   6.8454370      Node   261.64848     +0.92786259     -0.05703060             
e   0.4170043      Incl.   10.01657     +0.35012701     -0.20698805             
P  17.9                                                                         
>From 61 observations 2006 Jan. 2-2024 Feb. 3, mean residual 0".3.               

・ 光度変化

        m1 = 12.0 + 5 logΔ + 10.0 log r

---------------------------------------------------------------------

軌道要素はM.P.E.C. 2024-H65に掲載されたものです。
光度グラフはComet for Windowsで作成したものです。

---------------------------------------------------------------------

Copyright(C) Seiichi Yoshida (comet@aerith.net). All rights reserved.